Regional Weather Roundup
Issued by NWS

Home | Current Version | Previous Version | Graphics & Text | Print | Product List | Glossary On
Versions: 1 2 3 4 5 6 7 8 9 10 11 12 13 14 15 16 17 18 19 20 21 22 23 24 25 26 27 28 29 30 31 32 33 34 35 36 37 38 39 40 41 42 43 44 45 46 47 48 49 50
000
ASUS43 KOAX 290410
RWRNE

WEATHER ROUNDUP FOR NEBRASKA
NATIONAL WEATHER SERVICE OMAHA NE
1100 PM CDT SAT MAR 28 2015

NOTES: SATELLITE DATA IS BEING USED TO AUGMENT CLOUD COVER ABOVE
       12000 FEET.
       "FAIR" INDICATES FEW OR NO CLOUDS BELOW 12,000 FEET WITH NO
       SIGNIFICANT WEATHER AND/OR OBSTRUCTIONS TO VISIBILITY.

  * THESE STATIONS DO NOT REPORT WEATHER SUCH AS RAIN...SNOW OR FOG.

NEZ001>004-019>022-054>056-290500-
NEBRASKA PANHANDLE

CITY           SKY/WX    TMP DP  RH WIND       PRES   REMARKS
SCOTTSBLUFF    CLEAR     66  20  17 W10       29.84R
ALLIANCE       PTCLDY    59  25  27 W16       29.80R
CHADRON        CLEAR     62  35  36 W20G29    29.79R
KIMBALL        PTCLDY    60  28  30 W15       29.91R
SIDNEY         PTCLDY    67  27  22 W26       29.86R
$$

NEZ057>060-069>072-079>082-290500-
SOUTHWEST NEBRASKA

CITY           SKY/WX    TMP DP  RH WIND       PRES   REMARKS
NORTH PLATTE   MOCLDY    65  36  34 S9G32     29.80R
IMPERIAL       PTCLDY    69  23  17 SW15      29.79R
LEXINGTON      CLEAR     56  38  49 SE16      29.79F
MCCOOK         PTCLDY    63  38  39 S14G20    29.80S
OGALLALA       CLOUDY    60  29  30 SW8       29.77F
$$

NEZ005>010-023>029-035>040-094-290500-
NORTH CENTRAL NEBRASKA

CITY           SKY/WX    TMP DP  RH WIND       PRES   REMARKS
VALENTINE      MOCLDY    64  37  36 S26G36    29.65F
AINSWORTH      MOCLDY    59  36  42 S17G25    29.71R
BROKEN BOW     CLEAR     54  36  50 S14G22    29.79F
O`NEILL        PTCLDY    52  35  52 S23G31    29.72F
ORD            CLEAR     52  33  48 SE17      29.78F
THEDFORD       PTCLDY    62  37  38 S23G37    29.71S
$$

NEZ041-046>049-061>064-073>077-083>087-290500-
SOUTH CENTRAL NEBRASKA

CITY           SKY/WX    TMP DP  RH WIND       PRES   REMARKS
GRAND ISLAND   CLEAR     50  34  54 S23G33    29.84F
AURORA         CLEAR     47  33  59 SE18G24   29.86F
HASTINGS       CLEAR     51  35  54 S17       29.85F
HEBRON         CLEAR     47  33  57 SE14      29.92F
HOLDREGE       CLEAR     55  37  50 S20G25    29.81F
KEARNEY *      CLEAR     52  36  54 S20G26    29.82F
YORK           CLEAR     46  34  61 S21       29.88F
$$

NEZ011>018-030>034-042>045-290500-
NORTHEAST NEBRASKA

CITY           SKY/WX    TMP DP  RH WIND       PRES   REMARKS
NORFOLK        CLEAR     45  34  65 SE22G31   29.84F
ALBION         CLEAR     46  32  58 SE14G22   29.83F
BLAIR          CLEAR     45  32  59 S18       29.96F
COLUMBUS *     CLEAR     45  30  57 SE15      29.90F
FREMONT        CLEAR     46  32  58 SE18G28   29.93F
TEKAMAH        CLEAR     43  31  62 SE15      29.95F
WAYNE          CLEAR     45  33  63 S25       29.85F
$$

NEZ050>053-065>068-078-088>093-290500-
SOUTHEAST NEBRASKA

CITY           SKY/WX    TMP DP  RH WIND       PRES   REMARKS
LINCOLN        CLEAR     47  33  58 S22G29    29.95F
OMAHA EPPLEY   CLEAR     44  32  62 SE16      29.99F
BEATRICE       CLEAR     45  33  64 SE17      29.96F
FALLS CITY     CLEAR     38  30  73 SE10      30.04F WCI  31
NEBRASKA CITY  CLEAR     42  30  62 S15       30.01F
PLATTSMOUTH    CLEAR     42  30  62 SE13G18   30.00F
$$

NEZ044-045-051>053-067-290500-
OMAHA AREA

CITY           SKY/WX    TMP DP  RH WIND       PRES   REMARKS
OMAHA EPPLEY   CLEAR     44  32  62 SE16      29.99F
BLAIR          CLEAR     45  32  59 S18       29.96F
FREMONT        CLEAR     46  32  58 SE18G28   29.93F
MILLARD        CLEAR     45  32  61 SE14G20   29.98F
OFFUTT AFB     CLEAR     43  32  65 SE15      29.99F
PLATTSMOUTH    CLEAR     42  30  62 SE13G18   30.00F
WAHOO          FAIR      44  32  63 SE17      29.94F
$$


USA.gov is the U.S. government's official web portal to all federal, state and local government web resources and services.